OBJECT E

基本信息
目录编号:
100655
目录名称:
OBJECT E
国际标识:
2026-205E
轨道中心:
EARTH
物体状态:
在轨
发射日期:
2026-09-10 UTC
国别:
中国 (CN)
轨道信息
数据来源: 国际轨道数据
星历时间: 2026-09-22T05:18:52+0800
半长轴: 6894.374km
偏心率: 0.0005549
轨道倾角: 44.994°
近地点辐角: 325.742°
升交点赤经: 46.497°
平近点角: 34.311°
近地点: 512.411km
远地点: 520.063km
周期: 94.952分钟
每日圈数: 15.165634
详细信息
发射场:
JSC
轨道高度:
LEO
数据来源:
AOE Working Group
参考系:
TEME
时间系统:
UTC
历元类型:
SGP4
2D轨道图
3D轨道图
轨道高度分析图
轨道倾角分析图
轨道综合分析图
查看轨道综合分析图